SBFZSBPB

Guest
Details From SBFZ - Pinto Martins
To SBPB - PREFEITO DOUTOR JOAO SILVA FILHO
Flight Number -
Tags generated
Created
Modified
Stats Distance 199 nm / 369 km
Max Altitude 18,500 ft / 5,639 m
Waypoints 6
Social Downloads 1
Likes 0
Share VATSIM

Download

Looking for another format? Having issues loading an existing format? Contact us
Advertisement - Login to hide

Notes

Basic altitude profile: - Ascent Rate: 2500ft/min - Ascent Speed: 250kts - Cruise Altitude: 35000ft - Cruise Speed: 420kts - Descent Rate: 1500ft/min - Descent Speed: 250kts Options: - Use NATs: yes - Use PACOTS: yes - Use low airways: yes - Use high airways: no

Route

SBFZ FLZ G677 PNB SBPB

ID Type Via Altitude Latitude Longitude Leg Dist Tot Dist Heading (true) Name
O SBFZ APT - 0 ft / 0 m -3.77628˚ -38.53256˚ - 0 nm - Pinto Martins
FLZ VOR - 300 ft / 91 m -3.77227˚ -38.54769˚ 0 nm 0 nm 285° / 285° FORTALEZA VOR-DME
CROMO FIX G677 (AWY-LO) 14,600 ft / 4,450 m -3.63367˚ -39.20017˚ 39 nm 40 nm 282° / 282° -
URT NDB G677 (AWY-LO) 18,500 ft / 5,639 m -3.58550˚ -39.42667˚ 13 nm 54 nm 282° / 282° URUBURETAMA NDB
PNB NDB G677 (AWY-LO) 5,500 ft / 1,676 m -2.89750˚ -41.72883˚ 144 nm 198 nm 287° / 287° PARNAIBA NDB
O SBPB APT - 0 ft / 0 m -2.89375˚ -41.73196˚ 0 nm 199 nm 320° / 320° PREFEITO DOUTOR JOAO SILVA FILHO

Altitude Profile

Advertisement - Login to hide

Weather


0- 5 10 15 20 25 30 35+ Temperature / ° C

Clouds and Precipitation
Forecast for 2018-05-20 12:00 UTC. Updated an hour ago

Ground ~20,000 ft ~40,000 ft Winds

SBFZ

Details ICAO SBFZ (FOR)
Name Pinto Martins
Region Brazil
Timezone America/Fortaleza (UTC-3.0)
Stats Elevation 82 ft / 25 m (AMSL)
Location -3.776283° -38.532556°
Runways 1
Magnetic Variation 21.110° W

METAR

SBFZ 201200Z 11008KT 9999 SCT023 29/23 Q1013

Decode

TAF

TAF SBFZ 201000Z 2012/2112 10012KT 9999 SCT020 FEW025TCU TX31/2015Z TN24/2108Z BECMG 2014/2015 SCT025 BECMG 2018/2020 09008KT BECMG 2102/2104 15007KT RMK PEI

Decode

Departure Runways

ID Width Length Bearing (true) Bearing (mag) Surface Threshold Offset Overrun Length
13 148 ft / 45 m 8,360 ft / 2,548 m 104.88° 125.99° Asphalt 0 ft / 0 m 195 ft / 59 m
31 148 ft / 45 m 8,360 ft / 2,548 m 284.88° 305.99° Asphalt 0 ft / 0 m 125 ft / 38 m

SBPB

Details ICAO SBPB
Name PREFEITO DOUTOR JOAO SILVA FILHO
Region Brazil
Timezone America/Fortaleza (UTC-3.0)
Stats Elevation 16 ft / 5 m (AMSL)
Location -2.893747° -41.731961°
Runways 1
Magnetic Variation 21.047° W

METAR

SBPB 201200Z 10007KT 9999 SCT017 BKN100 28/25 Q1013

Decode

TAF

Not found

Destination Runways

ID Width Length Bearing (true) Bearing (mag) Surface Threshold Offset Overrun Length
09 148 ft / 45 m 6,902 ft / 2,104 m 73.53° 94.58° Asphalt 0 ft / 0 m 0 ft / 0 m
27 148 ft / 45 m 6,902 ft / 2,104 m 253.53° 274.58° Asphalt 0 ft / 0 m 0 ft / 0 m

Popular Alternatives